Location: Dal�� Lhota
(48.7500°N, 14.0167°E)
Time: 20:18:31
(UTC+00:00)

Transit 2A - Pass Details

Date: 29 July 2021
Orbit: 594 x 964 km, 66.7° (Epoch: 27 September)

Event Time Altitude Azimuth Distance (km) Brightness Sun altitude
Rises 08:41:06 0° 278° (W) 2,907 8.6 47.5°
Reaches altitude 10° 08:44:20 10° 304° (WNW) 2,057 7.9 47.9°
Maximum altitude 08:46:52 14° 337° (NNW) 1,828 7.8 48.3°
Drops below altitude 10° 08:49:31 10° 10° (N) 2,168 8.3 48.7°
Sets 08:53:06 0° 35° (NE) 3,178 9.2 49.1°
